sat.trackr.live / text

‹ back to catalog

STARLINK-37995

NORAD 69977 · 2026-159C

PAYLOAD ACTIVE UNKNOWN

§ Identity

Operator
Country
US
Launch date
2026-07-11
Launch site
AFWTR
Launch vehicle
Mass (kg)
RCS (m²)

Purposes: comms

External: N2YO · Heavens-Above · Gunter

§ Orbital elements

Epoch: 2026-09-19T23:56:34.817280Z

Period
92.95 min
Inclination
97.2806°
Eccentricity
0.0004119
Mean motion
15.49217057 rev/d
Perigee alt
416.2 km
Apogee alt
421.8 km
Semi-major
6,797.2 km
B*
7.7137e-4
RAAN
104.7202°
Arg perigee
72.2320°
Mean anomaly
287.9381°
Rev number
1,236

§ Raw data

STARLINK-379951 69977U 26159C   26262.99762520  .00042140  00000+0  77137-3 0  99972 69977  97.2806 104.7202 0004119  72.2320 287.9381 15.49217057 12360

JSON: /api/v1/satellites/69977 · /tle

For live sub-satellite position, see the globe view (requires WebGL).

§ Visibility from observer

Set your observer location to see the next 7 days of passes ≥ 10°. The values pass through the URL so the page stays shareable.

No JS? Fill the form by hand. The geolocation button needs JavaScript.